TimeBST,TemperatureF,Dew PointF,Humidity,Sea Level PressureIn,VisibilityMPH,Wind Direction,Wind SpeedMPH,Gust SpeedMPH,PrecipitationIn,Events,Conditions,WindDirDegrees,DateUTC
12:20 AM,50.0,42.8,76,29.86,6.2,East,6.9,-,N/A,,Mostly Cloudy,100,2012-10-10 23:20:00
12:50 AM,49,42,71,29.86,12,East,8.1,,,,Partly Cloudy,100,2012-10-10 23:50:00
12:50 AM,48.2,42.8,82,29.86,6.2,East,6.9,-,N/A,,Mostly Cloudy,100,2012-10-10 23:50:00
1:20 AM,46.4,42.8,87,29.86,6.2,East,6.9,-,N/A,,Unknown,100,2012-10-11 00:20:00
1:50 AM,48.2,42.8,82,29.83,6.2,East,5.8,-,N/A,,Mostly Cloudy,90,2012-10-11 00:50:00
2:20 AM,50.0,44.6,82,29.83,6.2,East,6.9,-,N/A,,Overcast,90,2012-10-11 01:20:00
2:50 AM,50.0,44.6,82,29.80,6.2,ESE,10.4,-,N/A,,Mostly Cloudy,120,2012-10-11 01:50:00
3:20 AM,51.8,44.6,76,29.80,6.2,ESE,11.5,-,N/A,,Mostly Cloudy,120,2012-10-11 02:20:00
3:50 AM,52,45,69,29.80,12,ESE,9.2,,,,Overcast,110,2012-10-11 02:50:00
3:50 AM,51.8,44.6,76,29.80,6.2,ESE,10.4,-,N/A,,Overcast,110,2012-10-11 02:50:00
4:20 AM,51.8,44.6,76,29.77,6.2,East,9.2,-,N/A,,Overcast,100,2012-10-11 03:20:00
4:50 AM,50.0,44.6,82,29.77,6.2,East,8.1,-,N/A,,Mostly Cloudy,90,2012-10-11 03:50:00
5:20 AM,48.2,44.6,87,29.74,6.2,East,6.9,-,N/A,,Partly Cloudy,80,2012-10-11 04:20:00
5:50 AM,48.2,44.6,87,29.74,-9999.0,East,8.1,-,N/A,,Clear,90,2012-10-11 04:50:00
6:20 AM,48.2,44.6,87,29.74,6.2,East,9.2,-,N/A,,Scattered Clouds,90,2012-10-11 05:20:00
6:50 AM,50,45,76,29.73,7,East,6.9,,,,,80,2012-10-11 05:50:00
6:50 AM,48.2,44.6,87,29.71,6.2,East,8.1,-,N/A,,Scattered Clouds,90,2012-10-11 05:50:00
7:20 AM,48.2,44.6,87,29.71,6.2,East,8.1,-,N/A,,Scattered Clouds,100,2012-10-11 06:20:00
7:50 AM,50.0,44.6,82,29.71,6.2,East,10.4,-,N/A,,Mostly Cloudy,90,2012-10-11 06:50:00
8:20 AM,50.0,46.4,87,29.71,6.2,East,8.1,-,N/A,,Mostly Cloudy,90,2012-10-11 07:20:00
8:50 AM,50.0,46.4,87,29.71,6.2,East,9.2,-,N/A,,Mostly Cloudy,100,2012-10-11 07:50:00
9:20 AM,51.8,46.4,82,29.68,5.0,East,9.2,-,N/A,,Mostly Cloudy,80,2012-10-11 08:20:00
9:50 AM,53,48,79,29.69,5,East,9.2,,,,Light Haze,80,2012-10-11 08:50:00
9:50 AM,51.8,48.2,88,29.68,5.0,East,9.2,-,N/A,,Mostly Cloudy,90,2012-10-11 08:50:00
10:20 AM,53.6,50.0,88,29.68,5.0,East,8.1,-,N/A,,Mostly Cloudy,90,2012-10-11 09:20:00
10:50 AM,53.6,50.0,88,29.68,4.3,East,8.1,-,N/A,,Overcast,100,2012-10-11 09:50:00
11:20 AM,53.6,51.8,94,29.65,1.7,East,8.1,-,N/A,Rain,Light Rain,90,2012-10-11 10:20:00
11:50 AM,55.4,53.6,94,29.65,-9999.0,East,8.1,-,N/A,Rain,Light Rain,90,2012-10-11 10:50:00
12:20 PM,55.4,53.6,94,29.65,1.5,East,8.1,-,N/A,Rain,Rain,90,2012-10-11 11:20:00
12:50 PM,56,55,94,29.63,1,East,6.9,,,Rain,Light Rain,90,2012-10-11 11:50:00
12:50 PM,55.4,55.4,100,29.62,1.2,East,8.1,-,N/A,Rain,Light Rain,90,2012-10-11 11:50:00
1:20 PM,57.2,55.4,94,29.62,1.1,East,8.1,-,N/A,Rain,Rain,90,2012-10-11 12:20:00
1:50 PM,57.2,57.2,100,29.59,2.8,East,8.1,-,N/A,,Mostly Cloudy,100,2012-10-11 12:50:00
2:20 PM,59.0,57.2,94,29.59,3.7,ESE,8.1,-,N/A,,Mostly Cloudy,110,2012-10-11 13:20:00
2:50 PM,59.0,57.2,94,29.56,6.2,ESE,11.5,-,N/A,,Mostly Cloudy,110,2012-10-11 13:50:00
3:20 PM,59.0,55.4,88,29.56,5.6,ESE,9.2,-,N/A,,Mostly Cloudy,110,2012-10-11 14:20:00
3:50 PM,58,57,94,29.56,4,ESE,9.2,,,Rain,Light Rain Showers,110,2012-10-11 14:50:00
3:50 PM,59.0,57.2,94,29.56,4.3,ESE,10.4,-,N/A,Rain,Rain,110,2012-10-11 14:50:00
4:20 PM,59.0,57.2,94,29.53,3.7,East,8.1,-,N/A,Rain,Light Rain,100,2012-10-11 15:20:00
4:50 PM,59.0,57.2,94,29.53,2.8,East,9.2,-,N/A,Rain,Rain,100,2012-10-11 15:50:00
5:20 PM,59.0,57.2,94,29.53,3.1,East,9.2,-,N/A,Rain,Rain,100,2012-10-11 16:20:00
5:50 PM,59.0,57.2,94,29.50,2.5,East,9.2,-,N/A,Rain,Light Rain,100,2012-10-11 16:50:00
6:20 PM,59.0,57.2,94,29.50,2.5,East,8.1,-,N/A,Rain,Light Rain,100,2012-10-11 17:20:00
6:50 PM,59,58,96,29.50,4,ESE,9.2,,,Rain,Rain,120,2012-10-11 17:50:00
6:50 PM,59.0,57.2,94,29.50,-9999.0,ESE,10.4,-,N/A,,Mostly Cloudy,110,2012-10-11 17:50:00
7:20 PM,59.0,59.0,100,29.50,3.1,SE,6.9,-,N/A,Rain,Light Rain,130,2012-10-11 18:20:00
7:50 PM,59.0,59.0,100,29.50,5.6,SSE,9.2,-,N/A,,Mostly Cloudy,160,2012-10-11 18:50:00
8:20 PM,59.0,57.2,94,29.47,4.3,SSE,9.2,-,N/A,Rain,Light Rain,160,2012-10-11 19:20:00
8:50 PM,59.0,57.2,94,29.47,6.2,SSE,9.2,-,N/A,,Mostly Cloudy,160,2012-10-11 19:50:00
9:20 PM,59.0,57.2,94,29.47,6.2,SSE,9.2,-,N/A,,Mostly Cloudy,160,2012-10-11 20:20:00
9:50 PM,60,57,88,29.49,1,South,9.2,,,Rain,Light Drizzle,170,2012-10-11 20:50:00
9:50 PM,59.0,57.2,94,29.47,3.1,South,9.2,-,N/A,,Light Drizzle,180,2012-10-11 20:50:00
10:20 PM,59.0,57.2,94,29.47,5.6,SSW,9.2,-,N/A,,Scattered Clouds,200,2012-10-11 21:20:00
10:50 PM,59.0,57.2,94,29.47,6.2,SSW,9.2,-,N/A,,Scattered Clouds,200,2012-10-11 21:50:00
11:20 PM,59.0,57.2,94,29.47,6.2,SW,11.5,-,N/A,,Scattered Clouds,220,2012-10-11 22:20:00
11:50 PM,57.2,55.4,94,29.50,6.2,WSW,15.0,-,N/A,,Mostly Cloudy,240,2012-10-11 22:50:00